Pocatello, ID

5:19 AM MST on December 11, 2017 (GMT -0700)
Pocatello Regional

Weather History for KPIH - July, 2011

Change the Weather History Date:

Wednesday, July 27, 2011

  Actual Average Record
Temperature  
Mean Temperature 72 °F 71 °F  
Max Temperature 84 °F 90 °F 100 °F (1969)
Min Temperature 60 °F 53 °F 41 °F (2005)
Degree Days  
Heating Degree Days 0 0  
Month to date heating degree days 4 17  
Since 1 June heating degree days 193 148  
Since 1 July heating degree days 4 17  
Cooling Degree Days 7 7  
Month to date cooling degree days 144 144  
Year to date cooling degree days 169 195  
Since 1 June cooling degree days 169 190  
Growing Degree Days 22 (Base 50)    
Moisture  
Dew Point 38 °F    
Average Humidity 30    
Maximum Humidity 42    
Minimum Humidity 17    
Precipitation  
Precipitation 0.00 in 0.03 in 0.94 in (1984)
Month to date precipitation 0.29 0.56  
Year to date precipitation 8.30 7.38  
Snow  
Snow 0.00 in - - ()
Month to date snowfall 0.0  
Since 1 June snowfall 0.0  
Since 1 July snowfall 0.0  
Snow Depth 0.00 in    
Sea Level Pressure  
Sea Level Pressure 29.88 in    
Wind  
Wind Speed 12 mph (SW)    
Max Wind Speed 21 mph    
Max Gust Speed 24 mph    
Visibility 10 miles    
Events      
T = Trace of Precipitation, MM = Missing Value Source: NWS Daily Summary

Daily Weather History Graph

Daily Weather History Graph

Search for Another Location

Airport or City:

Trip Planner

Search our weather history database for the weather conditions in past years. The results will help you decide how hot, cold, wet, or windy it might be!

Date:

Astronomy

Jul. 27, 2011 Rise Set
Actual Time 6:16 AM MDT 8:57 PM MDT
Civil Twilight 5:43 AM MDT 9:29 PM MDT
Nautical Twilight 5:02 AM MDT 10:10 PM MDT
Astronomical Twilight 4:15 AM MDT 10:57 PM MDT
Moon 2:59 AM MDT (7/27) 6:39 PM MDT (7/27)
Length of Visible Light 15h 46m
Length of Day
14h 40m
Waning Crescent, 11% of the Moon is Illuminated
Jul 27
Waning Crescent
Jul 30
New
Aug 6
First Quarter
Aug 13
Full
Aug 21
Last Quarter

Hourly Weather History & Observations

Time (MDT) Temp. Dew Point Humidity Pressure Visibility Wind Dir Wind Speed Gust Speed Precip Events Conditions
12:00 AM - - N/A% - - North - - N/A   Unknown
12:53 AM 64.9 °F 39.9 °F 40% 29.81 in 10.0 mi SSW 10.4 mph - N/A   Clear
1:53 AM 66.0 °F 39.0 °F 37% 29.81 in 10.0 mi SSW 11.5 mph - N/A   Clear
2:53 AM 64.0 °F 39.0 °F 40% 29.83 in 10.0 mi SSW 10.4 mph - N/A   Mostly Cloudy
3:53 AM 64.0 °F 37.9 °F 38% 29.83 in 10.0 mi SSW 9.2 mph - N/A   Mostly Cloudy
4:53 AM 63.0 °F 37.0 °F 38% 29.84 in 10.0 mi SSW 9.2 mph - N/A   Mostly Cloudy
5:53 AM 62.1 °F 37.0 °F 39% 29.87 in 10.0 mi SW 11.5 mph - N/A   Partly Cloudy
6:53 AM 61.0 °F 37.0 °F 41% 29.89 in 10.0 mi SSW 10.4 mph - N/A   Partly Cloudy
7:53 AM 64.9 °F 37.9 °F 37% 29.90 in 10.0 mi SSW 10.4 mph - N/A   Clear
8:53 AM 69.1 °F 39.0 °F 33% 29.92 in 10.0 mi SW 10.4 mph - N/A   Clear
9:53 AM 72.0 °F 37.9 °F 29% 29.92 in 10.0 mi SW 11.5 mph - N/A   Clear
10:53 AM 75.0 °F 37.9 °F 26% 29.93 in 10.0 mi West 12.7 mph 17.3 mph N/A   Clear
11:53 AM 75.9 °F 41.0 °F 29% 29.93 in 10.0 mi West 10.4 mph - N/A   Clear
12:53 PM 79.0 °F 36.0 °F 21% 29.93 in 10.0 mi West 17.3 mph - N/A   Partly Cloudy
1:53 PM 80.1 °F 39.9 °F 24% 29.91 in 10.0 mi West 12.7 mph 20.7 mph N/A   Partly Cloudy
2:53 PM 82.0 °F 39.9 °F 22% 29.90 in 10.0 mi West 13.8 mph 19.6 mph N/A   Partly Cloudy
4:53 PM 82.9 °F 39.0 °F 21% 29.87 in 10.0 mi WSW 13.8 mph 21.9 mph N/A   Clear
5:53 PM 82.9 °F 34.0 °F 17% 29.86 in 10.0 mi WSW 12.7 mph - N/A   Partly Cloudy
6:53 PM 82.0 °F 36.0 °F 19% 29.85 in 10.0 mi WSW 11.5 mph - N/A   Partly Cloudy
7:53 PM 79.0 °F 39.0 °F 24% 29.86 in 10.0 mi WSW 9.2 mph - N/A   Partly Cloudy
8:53 PM 73.9 °F 42.1 °F 32% 29.87 in 10.0 mi SW 11.5 mph - N/A   Clear
9:53 PM 70.0 °F 39.0 °F 32% 29.90 in 10.0 mi SSW 10.4 mph - N/A   Clear
10:00 PM - - N/A% - - North - - N/A   Unknown
10:53 PM 66.0 °F 37.0 °F 34% 29.91 in 10.0 mi SSW 10.4 mph - N/A   Clear
11:53 PM 66.9 °F 37.9 °F 34% 29.92 in 10.0 mi SW 10.4 mph - N/A   Clear